GW4420 Weather Reports


time (UTC)temp
C
wind
direction
speed
KPH
gust
KPH
rain 1hr
cm
rain 24hr
cm
rain mn
cm
humidity
%
barometer
mb
20260906125642 27 353 4.8 16.1 0.00 4.17 4.17 90 1002.6
20260906125141 27 91 3.2 6.4 0.00 4.17 4.17 90 1002.6
20260906124637 27 150 1.6 6.4 0.00 4.17 4.17 89 1002.5
20260906124132 27 314 14.5 20.9 0.00 4.17 4.17 89 1002.3
20260906123631 27 269 4.8 22.5 0.00 4.17 4.17 90 1002.6
20260906123126 27 83 3.2 6.4 0.00 4.17 4.17 90 1002.5
20260906122626 27 312 9.7 22.5 0.00 4.17 4.17 90 1002.7
20260906122121 27 308 3.2 9.7 0.00 4.17 4.17 90 1002.2
20260906121617 27 179 1.6 3.2 0.00 4.17 4.17 90 1002.2
20260906121114 27 160 4.8 12.9 0.00 4.17 4.17 90 1002.1
20260906120609 27 93 0.0 4.8 0.00 4.17 4.17 90 1001.9
20260906120107 27 168 6.4 11.3 0.00 4.17 4.17 90 1002.0
20260906115606 27 103 1.6 6.4 0.00 4.17 4.17 90 1002.0
20260906115102 27 178 4.8 11.3 0.00 4.17 4.17 90 1001.8
20260906114601 27 238 4.8 6.4 0.00 4.17 4.17 90 1001.8
20260906114057 27 45 3.2 4.8 0.00 4.17 4.17 90 1001.8
20260906113556 27 37 4.8 6.4 0.00 4.17 4.17 90 1001.6
20260906113051 27 97 1.6 6.4 0.00 4.17 4.17 90 1001.5
20260906112546 27 315 4.8 9.7 0.00 4.17 4.17 91 1001.5
20260906112042 27 309 3.2 14.5 0.00 4.17 4.17 91 1001.6
20260906111542 27 142 6.4 9.7 0.00 4.17 4.17 91 1001.2
20260906111037 27 107 4.8 11.3 0.00 4.17 4.17 91 1001.2
20260906110537 27 103 1.6 9.7 0.00 4.17 4.17 91 1001.3
20260906110036 27 200 4.8 11.3 0.00 4.17 4.17 91 1001.3
20260906105531 27 280 3.2 12.9 0.00 4.17 4.17 91 1001.2
20260906105027 27 308 4.8 6.4 0.00 4.17 4.17 91 1001.2
20260906104525 27 278 3.2 16.1 0.00 4.17 4.17 91 1001.3
20260906104021 27 326 3.2 6.4 0.00 4.17 4.17 91 1001.5
20260906103519 27 182 1.6 4.8 0.00 4.17 4.17 91 1001.4
20260906103014 27 138 3.2 9.7 0.00 4.17 4.17 91 1001.2
20260906102514 27 306 3.2 6.4 0.00 4.17 4.17 91 1001.5
20260906102015 27 301 6.4 17.7 0.00 4.17 4.17 91 1001.3
20260906101509 27 3 8.0 12.9 0.00 4.17 4.17 91 1001.3
20260906101004 27 259 1.6 6.4 0.00 4.17 4.17 91 1001.1
20260906100500 27 149 1.6 14.5 0.00 4.17 4.17 91 1001.1
20260906100000 27 309 3.2 9.7 0.00 4.17 4.17 91 1001.1
20260906095455 27 341 3.2 4.8 0.00 4.17 4.17 91 1001.0
20260906094950 27 84 3.2 12.9 0.00 4.17 4.17 91 1001.1
20260906094443 27 314 3.2 6.4 0.13 4.17 4.17 91 1001.0
20260906093939 27 66 1.6 11.3 0.13 4.17 4.17 90 1001.0
20260906093436 27 357 3.2 4.8 0.00 4.14 4.14 90 1001.2
20260906092936 27 134 1.6 11.3 0.48 4.14 4.14 90 1000.9
20260906092435 27 7 1.6 9.7 0.48 4.14 4.14 88 1001.2
20260906091931 27 71 3.2 9.7 0.00 4.06 4.06 88 1001.1
20260906091426 27 125 0.0 9.7 0.00 4.06 4.06 88 1001.0
20260906090923 27 104 6.4 12.9 0.00 4.06 4.06 88 1000.9
20260906090418 27 112 1.6 17.7 0.00 4.06 4.06 88 1000.7
20260906085912 27 289 8.0 17.7 0.00 4.06 4.06 88 1000.8
20260906085412 27 311 3.2 9.7 0.00 4.06 4.06 87 1000.9
20260906084911 27 100 1.6 11.3 0.00 4.06 4.06 87 1001.1
20260906084406 27 79 3.2 14.5 0.00 4.06 4.06 87 1001.2
20260906083900 27 330 6.4 17.7 0.00 4.06 4.06 87 1000.9
20260906083355 27 275 4.8 4.8 0.00 4.06 4.06 87 1001.2
20260906082849 27 18 4.8 14.5 0.00 4.06 4.06 87 1001.0
20260906082345 27 329 3.2 6.4 0.00 4.06 4.06 87 1000.7
20260906081841 27 296 17.7 29.0 0.00 4.06 4.06 87 1000.4
20260906081336 27 225 1.6 4.8 0.00 4.06 4.06 87 1000.3
20260906080832 28 288 4.8 20.9 0.00 4.06 4.06 87 1000.3
20260906080328 28 306 3.2 12.9 0.00 4.06 4.06 87 1000.3
20260906075827 28 81 3.2 11.3 0.00 4.06 4.06 87 1000.2
20260906075328 28 247 9.7 12.9 0.00 4.06 4.06 87 1000.2
20260906074823 28 92 3.2 3.2 0.00 4.06 4.06 87 1000.2
20260906074323 28 154 4.8 12.9 0.00 4.06 4.06 87 1000.1
20260906073821 28 118 1.6 14.5 0.00 4.06 4.06 86 1000.1
20260906073316 28 44 3.2 14.5 0.00 4.06 4.06 87 999.9
20260906072813 28 139 1.6 4.8 0.00 4.06 4.06 88 999.9
20260906072308 28 317 4.8 9.7 0.00 4.06 4.06 88 999.9
20260906071804 28 71 0.0 1.6 0.00 4.06 4.06 87 1000.0
20260906071304 28 215 3.2 4.8 0.00 4.06 4.06 87 1000.1
20260906070800 28 342 3.2 12.9 0.00 4.06 4.06 86 999.9
20260906070255 28 216 8.0 12.9 0.00 4.06 4.06 86 1000.1
20260906065750 28 233 3.2 4.8 0.00 4.06 4.06 87 999.9
20260906065246 28 334 11.3 20.9 0.00 4.06 4.06 88 999.8
20260906064741 28 108 1.6 4.8 0.00 4.06 4.06 89 999.8
20260906064237 27 9 4.8 9.7 0.00 4.06 4.06 88 1000.0
20260906063732 27 9 4.8 9.7 0.00 4.06 4.06 88 999.9
20260906063227 28 313 22.5 29.0 0.00 4.06 4.06 86 1000.0
20260906062722 28 290 6.4 14.5 0.00 4.06 4.06 86 1000.0
20260906062221 28 322 11.3 22.5 0.00 4.06 4.06 86 999.9
20260906061718 28 338 9.7 17.7 0.00 4.06 4.06 87 1000.1
20260906061214 27 337 6.4 6.4 0.00 4.06 4.06 88 1000.3
20260906060709 27 31 6.4 9.7 0.00 4.06 4.06 88 1000.0
20260906060206 27 299 3.2 12.9 0.00 4.06 4.06 88 999.9
20260906055702 27 316 6.4 9.7 0.00 4.06 4.06 88 999.9
20260906055156 27 270 3.2 6.4 0.00 4.06 4.06 87 1000.1
20260906054652 27 257 3.2 17.7 0.00 4.06 4.06 87 999.9
20260906054151 27 37 9.7 17.7 0.00 4.06 4.06 87 999.8
20260906053648 27 320 6.4 14.5 0.00 4.06 4.06 88 999.8
20260906053143 27 290 8.0 16.1 0.00 4.06 4.06 88 999.7
20260906052639 27 293 4.8 20.9 0.00 4.06 4.06 88 999.7
20260906052135 28 71 4.8 11.3 0.00 4.06 4.06 88 999.7
20260906051631 28 290 3.2 20.9 0.00 4.06 4.06 88 999.6
20260906051126 28 322 12.9 16.1 0.00 4.06 4.06 88 999.8
20260906050622 28 0 4.8 16.1 0.00 4.06 4.06 88 1000.0
20260906050122 28 332 4.8 17.7 0.00 4.06 4.06 89 999.6
20260906045620 28 279 9.7 16.1 0.00 4.06 4.06 89 999.5
20260906045115 28 128 3.2 24.1 0.00 4.06 4.06 90 999.6
20260906044611 27 96 4.8 11.3 0.00 4.06 4.06 91 999.3
20260906044106 27 117 6.4 16.1 0.00 4.06 4.06 91 999.3
20260906043603 27 201 8.0 14.5 0.00 4.06 4.06 91 999.4
20260906043058 27 282 8.0 17.7 0.00 4.06 4.06 91 999.6
20260906042557 27 287 4.8 16.1 0.00 4.06 4.06 90 999.4
20260906042051 28 99 1.6 11.3 0.00 4.06 4.06 90 999.8
20260906041548 28 235 6.4 12.9 0.00 4.06 4.06 91 999.6
20260906041043 28 307 12.9 16.1 0.00 4.06 4.06 91 999.8
20260906040538 27 279 1.6 11.3 0.00 4.06 4.06 92 1000.1
20260906040033 27 302 3.2 4.8 0.00 4.06 4.06 93 1000.0
20260906035523 27 52 9.7 22.5 0.00 4.06 4.06 92 1000.1
20260906035019 27 110 3.2 9.7 0.00 4.06 4.06 93 1000.0
20260906034518 27 268 8.0 11.3 0.00 4.06 4.06 93 1000.0
20260906034013 27 295 14.5 22.5 0.00 4.06 4.06 93 1000.4
20260906033508 27 203 9.7 12.9 0.00 4.06 4.06 93 1000.4
20260906033004 27 326 4.8 14.5 0.00 4.06 4.06 93 1000.5
20260906032500 27 341 3.2 9.7 0.00 4.06 4.06 93 1000.6
20260906032000 27 55 9.7 16.1 0.00 4.06 4.06 93 1000.5
20260906031455 27 298 3.2 16.1 0.00 4.06 4.06 93 1000.4
20260906030945 27 24 6.4 11.3 0.00 4.06 4.06 94 1000.5
20260906030439 27 288 9.7 12.9 0.00 4.06 4.06 94 1000.4
20260906025934 27 294 4.8 14.5 0.00 4.06 4.06 94 1000.7
20260906025428 27 42 3.2 9.7 0.00 4.06 4.06 94 1000.9
20260906024927 27 88 4.8 9.7 0.00 4.06 4.06 94 1000.9
20260906024426 27 245 3.2 6.4 0.00 4.06 4.06 94 1000.8
20260906023921 27 239 4.8 16.1 0.18 4.06 4.06 94 1000.8
20260906023418 27 259 6.4 24.1 0.18 4.06 4.06 94 1000.7
20260906022918 27 327 16.1 25.7 0.00 4.04 4.04 94 1000.8
20260906022413 27 23 3.2 16.1 0.00 4.04 4.04 94 1000.6
20260906021908 27 318 3.2 16.1 0.00 4.04 4.04 95 1000.5
20260906021408 27 293 11.3 17.7 0.00 4.04 4.04 95 1000.4
20260906020902 27 334 4.8 17.7 0.00 4.04 4.04 95 1000.3
20260906020357 27 291 9.7 25.7 0.00 4.04 4.04 95 1000.4
20260906015851 27 329 4.8 12.9 0.00 4.04 4.04 96 1000.7
20260906015350 26 349 8.0 17.7 0.00 4.04 4.04 96 1000.5
20260906014845 26 95 1.6 14.5 0.13 4.04 4.04 96 1000.5
20260906014344 26 37 6.4 16.1 0.71 4.04 4.04 96 1000.4
20260906013841 26 29 6.4 6.4 0.61 3.99 3.99 96 1000.3
20260906013336 26 306 9.7 17.7 0.00 3.89 3.89 96 1000.6
20260906012831 26 67 9.7 14.5 0.13 3.89 3.89 96 1000.7
20260906012326 26 267 8.0 11.3 0.89 3.89 3.89 96 1000.6
20260906011826 26 250 9.7 16.1 1.85 3.86 3.86 96 1000.7
20260906011321 26 244 1.6 4.8 3.30 3.71 3.71 96 1000.6
20260906010817 26 71 1.6 20.9 4.45 3.51 3.51 96 1000.9
20260906010313 26 332 6.4 9.7 2.77 3.12 3.12 96 1000.9
20260906005808 26 291 8.0 16.1 0.79 2.74 2.74 96 1000.9
20260906005307 26 277 3.2 6.4 0.89 2.67 2.67 95 1000.9
20260906004807 26 56 3.2 9.7 2.69 2.62 2.62 95 1000.9
20260906004306 26 59 8.0 24.1 2.95 2.49 2.49 95 1000.8
20260906003801 26 299 12.9 17.7 2.59 2.13 2.13 95 1000.7
20260906003257 26 269 9.7 20.9 2.77 1.96 1.96 95 1000.6
20260906002752 26 281 4.8 14.5 1.27 1.65 1.65 95 1000.6
20260906002246 26 94 3.2 4.8 1.02 1.50 1.50 95 1000.3
20260906001742 26 303 6.4 11.3 0.89 1.45 1.45 95 1000.5
20260906001236 26 267 4.8 12.9 0.18 1.32 1.32 95 1000.3
20260906000732 26 277 3.2 11.3 0.89 1.30 1.30 95 1000.1
20260906000226 26 70 3.2 6.4 1.07 1.27 1.27 95 1000.1
20260905235721 26 359 3.2 6.4 0.13 1.12 1.12 95 1000.1
20260905235216 26 341 3.2 4.8 0.00 1.09 1.09 95 1000.2
20260905234712 26 341 3.2 4.8 0.18 1.09 1.09 95 1000.2
20260905234206 26 135 3.2 4.8 0.30 1.09 1.09 95 999.9
20260905233701 26 258 3.2 11.3 0.00 1.04 1.04 95 1000.0
20260905233200 26 309 3.2 9.7 0.00 1.04 1.04 95 999.9
20260905232656 26 329 3.2 3.2 0.00 1.04 1.04 95 1000.0
20260905232151 26 114 1.6 4.8 0.00 1.04 1.04 95 999.7
20260905231646 26 94 1.6 3.2 0.00 1.04 1.04 95 999.7
20260905231143 26 31 3.2 6.4 0.00 1.04 1.04 95 999.8
20260905230633 26 341 8.0 11.3 3.66 1.04 1.04 95 999.8
20260905230131 26 213 3.2 4.8 3.66 1.04 1.04 95 999.9
20260905225630 26 322 11.3 14.5 0.00 0.43 0.43 94 1000.0
20260905225126 26 322 11.3 14.5 0.00 0.43 0.43 94 999.9
20260905224625 26 322 11.3 14.5 0.00 0.43 0.43 94 999.7
20260905224124 26 322 11.3 14.5 0.18 0.43 0.43 94 999.7
20260905223621 26 309 0.0 6.4 0.00 0.41 0.41 94 999.7
20260905223118 26 108 0.0 3.2 0.00 0.41 0.41 94 999.5
20260905222613 26 328 4.8 11.3 0.00 0.41 0.41 94 999.7
20260905222108 26 90 0.0 3.2 0.00 0.41 0.41 94 999.5
20260905221603 26 141 3.2 9.7 0.43 0.41 0.41 94 999.6
20260905221059 26 91 1.6 1.6 0.71 0.41 0.41 94 999.5
20260905220554 26 39 1.6 3.2 0.79 0.33 0.33 93 999.4
20260905220051 26 0 1.6 1.6 0.61 0.25 0.25 93 999.5
20260905215549 26 36 3.2 9.7 0.43 0.18 0.18 93 999.4
20260905215046 27 71 1.6 1.6 0.79 0.15 0.15 93 999.4
20260905214542 27 126 1.6 3.2 0.30 0.08 0.08 92 999.2
20260905214037 27 95 0.0 1.6 0.13 0.03 0.03 92 999.2
20260905213532 27 71 0.0 3.2 0.00 0.00 0.00 92 999.3
20260905213027 27 99 0.0 1.6 0.00 0.00 0.00 92 999.1
20260905212522 27 68 0.0 4.8 0.00 0.00 0.00 92 999.1
20260905212021 27 263 4.8 6.4 0.00 0.00 0.00 91 999.1
20260905211517 27 306 3.2 11.3 0.00 0.00 0.00 91 999.0
20260905211013 27 322 6.4 11.3 0.00 0.00 0.00 91 999.0
20260905210508 27 97 1.6 4.8 0.00 0.00 0.00 91 998.9
20260905210009 27 117 0.0 1.6 0.00 0.00 0.00 91 998.9
20260905205508 27 312 6.4 11.3 0.00 0.00 0.00 91 998.6
20260905205007 27 48 3.2 11.3 0.00 0.00 0.00 92 998.6
20260905204502 27 305 1.6 4.8 0.00 0.00 0.00 92 998.5
20260905204002 26 271 6.4 9.7 0.00 0.00 0.00 92 998.0
20260905203458 26 174 3.2 4.8 0.00 0.00 0.00 92 998.0
20260905202953 26 99 0.0 3.2 0.00 0.00 0.00 92 998.0
20260905202448 26 281 1.6 4.8 0.00 0.00 0.00 92 998.1
20260905201943 26 101 0.0 1.6 0.00 0.00 0.00 92 997.9
20260905201438 26 98 0.0 0.0 0.00 0.00 0.00 91 997.8
20260905200933 26 69 0.0 1.6 0.00 0.00 0.00 92 997.8
20260905200429 26 353 1.6 1.6 0.00 0.00 0.00 92 997.9
20260905195926 26 62 1.6 3.2 0.00 0.00 0.00 92 997.7
20260905195417 26 129 0.0 1.6 0.00 0.00 0.00 91 997.6
20260905194912 26 129 0.0 4.8 0.00 0.00 0.00 91 997.5
20260905194411 26 248 0.0 3.2 0.00 0.00 0.00 91 997.3
20260905193906 26 102 0.0 1.6 0.00 0.00 0.00 91 997.4
20260905193401 26 106 0.0 3.2 0.00 0.00 0.00 91 997.3
20260905192856 26 105 0.0 0.0 0.00 0.00 0.00 91 997.5
20260905192352 26 109 0.0 3.2 0.00 0.00 0.00 91 997.4
20260905191851 26 113 0.0 1.6 0.00 0.00 0.00 91 997.5
20260905191350 26 68 1.6 1.6 0.00 0.00 0.00 91 997.6
20260905190849 27 101 0.0 3.2 0.00 0.00 0.00 91 997.7
20260905190342 27 80 0.0 1.6 0.00 0.00 0.00 91 997.7
20260905185841 27 187 3.2 9.7 0.00 0.00 0.00 91 997.9
20260905185337 27 268 8.0 12.9 0.00 0.00 0.00 91 997.8
20260905184835 27 297 9.7 14.5 0.00 0.00 0.00 91 998.1
20260905184335 27 30 6.4 16.1 0.00 0.00 0.00 90 998.3
20260905183833 27 302 6.4 22.5 0.00 0.00 0.00 91 998.3
20260905183330 27 266 11.3 14.5 0.00 0.00 0.00 91 998.0
20260905182830 27 357 4.8 14.5 0.00 0.00 0.00 90 998.1
20260905182329 27 20 4.8 12.9 0.00 0.00 0.00 90 998.1
20260905181825 27 66 1.6 11.3 0.00 0.00 0.00 90 998.1
20260905181319 27 256 6.4 11.3 0.00 0.00 0.00 90 998.2
20260905180818 27 293 11.3 16.1 0.00 0.00 0.00 90 998.3
20260905180313 27 290 3.2 6.4 0.00 0.00 0.00 90 998.3
20260905175808 27 105 1.6 6.4 0.00 0.00 0.00 90 998.4
20260905175306 27 290 6.4 14.5 0.00 0.00 0.00 90 998.6
20260905174758 27 30 3.2 9.7 0.00 0.00 0.00 90 998.6
20260905174254 27 326 9.7 11.3 0.00 0.00 0.00 90 998.7
20260905173749 27 286 8.0 20.9 0.00 0.00 0.00 90 998.6
20260905173245 27 343 6.4 12.9 0.00 0.00 0.00 89 998.7
20260905172744 27 256 4.8 17.7 0.00 0.00 0.00 89 998.5
20260905172243 27 318 4.8 17.7 0.00 0.00 0.00 89 998.5
20260905171740 27 306 9.7 14.5 0.00 0.00 0.00 89 998.8
20260905171236 27 294 14.5 20.9 0.00 0.00 0.00 90 998.8
20260905170732 26 279 8.0 17.7 0.00 0.00 0.00 90 998.7
20260905170228 26 353 6.4 12.9 0.00 0.00 0.00 91 998.9
20260905165727 27 219 9.7 17.7 0.00 0.00 0.00 91 999.1
20260905165222 27 284 9.7 16.1 0.00 0.00 0.00 91 998.9
20260905164722 27 299 9.7 12.9 0.00 0.00 0.00 91 999.2
20260905164217 27 353 6.4 6.4 0.00 0.00 0.00 91 999.2
20260905163713 27 348 4.8 14.5 0.00 0.00 0.00 91 999.4
20260905163209 27 292 8.0 20.9 0.00 0.00 0.00 92 999.5
20260905162705 27 356 3.2 14.5 0.00 0.00 0.00 92 999.3
20260905162204 27 293 4.8 16.1 0.00 0.00 0.00 92 999.1
20260905161700 26 348 3.2 12.9 0.00 0.00 0.00 92 999.4
20260905161157 26 225 6.4 9.7 0.00 0.00 0.00 92 999.3
20260905160656 26 292 4.8 4.8 0.00 0.00 0.00 92 999.1
20260905160156 26 312 1.6 3.2 0.00 0.00 0.00 92 999.2
20260905155655 26 318 1.6 11.3 0.00 0.00 0.00 92 999.0
20260905155155 26 99 1.6 6.4 0.00 0.00 0.00 92 998.8
20260905154643 26 339 4.8 4.8 0.00 0.00 0.00 92 998.5
20260905154133 27 253 3.2 9.7 0.00 0.00 0.00 92 998.5
20260905153629 26 298 3.2 14.5 0.00 0.00 0.00 93 998.4
20260905153125 26 56 3.2 11.3 0.00 0.00 0.00 93 998.6
20260905152619 26 324 9.7 14.5 0.00 0.00 0.00 93 998.2
20260905152114 26 12 1.6 12.9 0.00 0.00 0.00 94 998.0
20260905151609 26 344 6.4 14.5 0.00 0.00 0.00 94 997.9
20260905151104 26 281 6.4 11.3 0.00 0.00 0.00 95 997.5
20260905150559 26 58 9.7 11.3 0.00 0.00 0.00 95 997.1
20260905150057 26 246 6.4 14.5 0.00 0.00 0.00 95 997.2
20260905145551 26 12 4.8 12.9 0.00 2.97 2.97 95 997.1
20260905145050 26 336 3.2 6.4 0.00 2.97 2.97 95 997.1
20260905144545 26 317 3.2 16.1 0.00 2.97 2.97 96 997.1
20260905144044 26 357 9.7 22.5 0.18 2.97 2.97 96 997.4
20260905143544 26 62 4.8 14.5 0.30 2.97 2.97 96 997.3
20260905143039 26 11 9.7 11.3 0.30 2.95 2.95 96 997.5
20260905142538 26 292 9.7 12.9 0.36 2.92 2.92 96 997.8
20260905142033 26 239 6.4 11.3 0.43 2.87 2.87 96 997.7
20260905141532 26 19 3.2 20.9 1.19 2.84 2.84 96 997.8
20260905141030 26 9 6.4 14.5 2.29 2.79 2.79 96 998.1
20260905140529 26 302 6.4 33.8 2.87 2.62 2.62 96 998.1
20260905140028 26 297 9.7 12.9 3.66 2.36 2.36 96 998.4
20260905135519 26 311 6.4 14.5 4.37 2.11 2.11 96 998.7
20260905135013 26 283 6.4 12.9 2.77 1.65 1.65 95 998.4
20260905134508 26 319 3.2 16.1 2.34 1.32 1.32 95 998.4
20260905134007 26 276 9.7 16.1 2.16 1.14 1.14 95 998.3
20260905133502 26 293 9.7 17.7 1.85 0.91 0.91 95 998.2
20260905133001 26 284 4.8 9.7 0.97 0.76 0.76 95 997.9
20260905132456 26 77 3.2 9.7 0.00 0.61 0.61 95 997.6
20260905131951 26 324 6.4 9.7 0.00 0.61 0.61 95 997.7
20260905131447 27 77 3.2 9.7 0.30 0.61 0.61 95 997.4
20260905130947 27 132 0.0 3.2 0.18 0.58 0.58 95 997.5
20260905130441 27 84 0.0 3.2 0.00 0.56 0.56 95 997.4